COSMOS 2491 DEB, 45172

Orbit data source: Space-Track

COSMOS 2491 DEB, 45172 is space debris in LEO originally from a launch on Wed, 25 Dec 2013 UTC launched from the Plesetsk Missile And Space Complex (PKMTR). Debris objects in space refer to the collection of defunct objects orbiting the Earth. Examples of debris include non-operational satellites, rocket bodies, and fragments generated from explosions, collisions, or faulty payload assembly.

Loading next visibility...
Identifier
45172, 2013-076AD
Orbit
LEO
Country
Flag of CISCIS
Related business
Manufacturer
TsNIIKhM
Mission
Spacecraft
Bus & Motor
Unknown
Mass
Unknown
Launch date (UTC)
2013-12-25 (13 years ago)
Launch vehicle
Unknown
Launch site
Plesetsk Missile And Space Complex (PKMTR)
Object type
Payload
Rocket body
Debris
Shape & HBR
Unknown shape, 0.1 m
Radar Cross Section
Medium (>0.1 m² and <1 m²)

Expand to show TLE details & history
Last TLE update: 2 days ago

TLE from 2 days ago
0 COSMOS 2491 DEB
1 45172U 13076AD  26254.69063428  .00001516  00000-0  74462-2 0  9991
2 45172  82.4589  53.4170 0132100 298.9373  59.8526 12.68913526305258
Epoch: 2026-09-11T16:34Z
TLE epoch observation values (Epoch: 2026-09-11T16:34:30.801Z)
Latitude
-0.00011°
Longitude
174.07828°
Altitude
1,338.608 km
Speed
7.212 km/s
True Right ascension
03h 33m 40s
True Declination
0° 00' 00"
Sunlit
Object was in daylight at epoch
Visualization orbit readout
Latitude
Unknown
Longitude
Unknown
Altitude
Unknown
Speed
Unknown
Apparent Right ascension
Unknown
Apparent Declination
Unknown
Sunlit
N/A
Visualization observer readout
Local Sidereal Time
21:37:15
Azimuth
Unknown
Elevation
Unknown
Doppler factor
Unknown
Orbital elements
Apogee altitude
1,486.218 km
Perigee altitude
1,281.15 km
Semi-major axis
7,761.821 km
Eccentricity
0.01321
Inclination
82.4589°
RAAN
53.417°
Arg. of periapsis
298.9373°
True anomaly
61.17242°
Mean anomaly
59.8526°
Eccentric anomaly
60.51143°
Mean motion
3.17393 °/min
Orbital period
113.42 mins
BSTAR
0.0074462
Loading maneuver chart data...
Computing Atmospheric mass density...
Loading historical data...
Loading historical data...
Loading historical data...
Loading historical data...
Loading historical data...
Loading historical data...
Loading historical data...

Documentation

Showing up to 5 results
|